Weather History for KPSP - August, 2014

Change the Weather History Date:

Monday, August 4, 2014

  Actual Average Record
Temperature  
Mean Temperature 88 °F 93 °F  
Max Temperature 99 °F 107 °F 121 °F (1969)
Min Temperature 77 °F 78 °F 55 °F (1933)
Degree Days  
Heating Degree Days 0 0  
Month to date heating degree days 0 0  
Since 1 June heating degree days 0 0  
Since 1 July heating degree days 0 0  
Cooling Degree Days 23 28  
Month to date cooling degree days 96 112  
Year to date cooling degree days 2868 2364  
Since 1 June cooling degree days 1758 1605  
Growing Degree Days 38 (Base 50)    
Moisture  
Dew Point 60 °F    
Average Humidity 53    
Maximum Humidity 79    
Minimum Humidity 26    
Precipitation  
Precipitation 0.00 in 0.01 in 0.50 in (1992)
Month to date precipitation 0.88 0.04  
Year to date precipitation 1.90 3.23  
Since 1 July precipitation 1.15 0.29  
Snow  
Snow 0.00 in - - ()
Month to date snowfall 0.0  
Year to date snowfall 0.0  
Since 1 July snowfall 0.0  
Snow Depth 0.00 in    
Sea Level Pressure  
Sea Level Pressure 29.89 in    
Wind  
Wind Speed 3 mph (NNW)    
Max Wind Speed 9 mph    
Max Gust Speed 14 mph    
Visibility 10 miles    
Events      
T = Trace of Precipitation, MM = Missing Value Source: NWS Daily Summary

Daily Weather History Graph

Daily Weather History Graph

Search for Another Location

Airport or City:

Trip Planner

Search our weather history database for the weather conditions in past years. The results will help you decide how hot, cold, wet, or windy it might be!

Date:

Astronomy

Aug. 04, 2014 Rise Set
Actual Time 6:00 AM PDT 7:43 PM PDT
Civil Twilight 5:32 AM PDT 8:10 PM PDT
Nautical Twilight 5:00 AM PDT 8:43 PM PDT
Astronomical Twilight 4:25 AM PDT 9:17 PM PDT
Moon 2:01 PM PDT 12:07 AM PDT
Length of Visible Light 14h 37m
Length of Day
13h 43m
First Quarter, 58% of the Moon is Illuminated
Aug 4
First Quarter
Aug 10
Full
Aug 17
Last Quarter
Aug 25
New
Sep 2
First Quarter

Hourly Weather History & Observations

Time (PDT) Temp. Heat Index Dew Point Humidity Pressure Visibility Wind Dir Wind Speed Gust Speed Precip Events Conditions
12:53 AM 79.0 °F - 70.0 °F 74% 29.91 in 10.0 mi ESE 4.6 mph - N/A   Clear
2:53 AM 78.1 °F - 70.0 °F 76% 29.91 in 10.0 mi Calm Calm - N/A   Clear
3:53 AM 78.1 °F - 71.1 °F 79% 29.91 in 10.0 mi Calm Calm - N/A   Clear
5:53 AM 78.1 °F - 70.0 °F 76% 29.93 in 10.0 mi Calm Calm - N/A   Clear
6:53 AM 78.1 °F - 70.0 °F 76% 29.94 in 10.0 mi Calm Calm - N/A   Clear
7:53 AM 80.1 °F 83.2 °F 70.0 °F 71% 29.95 in 10.0 mi South 4.6 mph - N/A   Clear
8:53 AM 81.0 °F 84.4 °F 70.0 °F 69% 29.96 in 10.0 mi South 3.5 mph - N/A   Mostly Cloudy
9:53 AM 84.9 °F 88.8 °F 69.1 °F 59% 29.95 in 10.0 mi ENE 4.6 mph - N/A   Clear
10:53 AM 87.1 °F 89.2 °F 66.0 °F 49% 29.95 in 10.0 mi Calm Calm - N/A   Scattered Clouds
11:53 AM 90.0 °F 92.8 °F 66.9 °F 46% 29.94 in 10.0 mi SSE 4.6 mph - N/A   Scattered Clouds
12:53 PM 91.9 °F 93.3 °F 64.0 °F 39% 29.92 in 10.0 mi SE 8.1 mph - N/A   Clear
1:53 PM 93.9 °F 94.8 °F 62.1 °F 35% 29.89 in 10.0 mi Variable 3.5 mph - N/A   Clear
2:53 PM 97.0 °F 96.5 °F 59.0 °F 28% 29.87 in 10.0 mi NNE 5.8 mph - N/A   Scattered Clouds
3:53 PM 96.1 °F 95.2 °F 57.9 °F 28% 29.84 in 10.0 mi NW 4.6 mph - N/A   Clear
4:53 PM 98.1 °F 97.2 °F 57.9 °F 26% 29.82 in 10.0 mi North 8.1 mph - N/A   Clear
5:53 PM 99.0 °F 97.7 °F 55.9 °F 24% 29.81 in 10.0 mi North 10.4 mph - N/A   Partly Cloudy
6:53 PM 97.0 °F 94.6 °F 53.1 °F 23% 29.81 in 10.0 mi NW 16.1 mph 20.7 mph N/A   Clear
7:53 PM 93.9 °F - 50.0 °F 22% 29.82 in 10.0 mi NW 15.0 mph - N/A   Clear
8:53 PM 91.9 °F - 45.0 °F 20% 29.84 in 10.0 mi NW 17.3 mph - N/A   Clear
9:53 PM 91.0 °F - 37.9 °F 15% 29.87 in 10.0 mi NW 19.6 mph 24.2 mph N/A   Clear
10:53 PM 90.0 °F - 37.0 °F 15% 29.87 in 10.0 mi NW 15.0 mph 23.0 mph N/A   Clear
11:53 PM 88.0 °F - 41.0 °F 19% 29.87 in 10.0 mi NW 11.5 mph - N/A   Clear